Space & Earth Science
NORAD ID: 35685
Int'l Code: 2009-041E
Perigee: 589.8 km
Apogee: 677.8 km
Inclination: 98.1 °
Period: 97.2 minutes
Semi major axis: 7004 km
Launch date: July 29, 2009
Source: Spain (SPN)
Comments: Nanosat 1B is a small testbed for the Spanish space agency. The satellite, stretching about 20 inches [50 cm] in diameter, will demonstrate basic space technologies.
Two Line Element Set (TLE):
1 35685U 09041E 13139.82602194 .00000924 00000-0 12302-3 0 1954
2 35685 098.0848 065.1095 0062786 193.3948 241.1221 14.80852435205570
Source: AFSPC
NASA's NSSDC Master Catalog entry for NANOSAT 1B